SCP
0 0 0 0 0 0 0 0 0 0 0 0 0 0 0 0 0 0 0 0 0 0 0 0 0 0 0 0 0 0 0 0 0 0 0 -0 0 -0 -0 0 -0 0 0 0 0 0 0 0 0 0 0 0 0 0
0 0 0 0 0 0 0 0 0 0 0 0 0 0 0 0 0 0 0 0 0 0 0 0 0 0 0 0 0 0 0 -0 0 0 0 0 0 -0 0 0 0 0 0 0 0 0 0 0 0 0 0 0 0 0
0 0 0 0 0 0 0 0 0 0 0 0 0 0 0 0 0 0 0 0 0 0 0 0 -0 0 0 0 0 0 0 0 0 0 0 0 0 -0 0 0 0 0 0 0 0 0 0 0 0 0 0 0 0 0
0 0 0 0 0 0 0 0 0 0 0 0 0 -0 0 0 0 0 0 0 0 0 0 0 0 0 0 0 0 0 0 0 0 0 0 0 0 0 0 0 0 0 0 0 0 0 0 0 0 0 0 0 0 0
0 0 0 0 0 0 0 0 0 0 -0 -0 -0 -0 -0 -0 -0 0 0 0 0 0 0 0 0 0 0 0 0 0 0 0 0 0 0 0 0 0 0 0 0 0 0 0 0 0 0 0 0 0 0 0 0 0
0 0 0 0 0 0 0 0 0 -0 -0 -0 -0 -0 -0 -0 -0 0 0 0 0 0 0 0 0 0 0 -0 0 0 0 0 0 0 0 0 0 0 0 0 0 0 0 0 0 0 0 0 0 0 0 0 0 0
0 0 0 0 0 0 0 0 0 -0 -0 -0 -0 -0 -0 -0 0 0 0 0 0 0 0 0 0 0 0 0 0 0 0 0 0 0 0 0 0 0 0 0 0 0 0 0 0 0 0 0 0 0 0 0 0 0
0 0 0 0 0 0 0 0 0 0 0 0 0 0 0 0 0 0 0 0 0 0 0 0 0 0 -0 0 0 0 0 0 0 0 0 0 0 0 0 0 0 0 0 0 0 0 0 0 0 0 0 0 0 0
0 0 0 0 0 0 0 0 0 0 0 0 0 0 0 0 0 0 0 0 0 0 0 0 0 0 0 -0 -0 0 0 0 0 0 0 0 0 0 0 0 0 0 0 0 0 0 0 0 0 0 0 0 0 0
0 0 0 0 0 0 0 0 0 0 0 0 0 0 0 0 0 0 0 0 0 0 0 0 0 0 0 0 0 0 0 0 0 0 0 0 0 0 0 0 0 0 0 0 0 0 0 0 0 0 0 0 0 0
0 0 0 0 0 0 0 0 0 0 0 0 0 0 0 0 0 0 0 0 0 0 0 0 0 0 0 0 0 0 0 0 0 0 0 0 0 0 0 0 0 0 0 0 0 0 0 0 0 0 0 0 0 0
0 0 0 0 0 0 0 0 0 0 0 0 0 0 0 0 0 0 0 0 0 0 0 0 0 0 0 0 0 0 0 0 0 0 0 0 0 0 0 0 0 0 0 0 0 0 0 0 0 0 0 0 0 0
0 0 0 0 0 0 0 0 0 0 0 0 0 0 0 0 0 0 0 0 0 0 0 0 0 0 0 0 0 0 0 0 0 0 0 0 0 0 0 0 0 0 0 0 0 0 0 0 0 0 0 0 0 0
0 0 0 0 0 0 0 0 0 0 0 0 0 0 0 0 0 0 0 0 0 0 0 0 0 0 0 0 0 0 0 0 0 0 0 0 0 0 0 0 0 0 0 0 0 0 0 0 0 0 0 0 0 0
0 0 0 0 0 0 0 0 0 0 0 0 0 0 0 0 0 0 0 0 0 0 0 0 0 0 0 0 0 0 0 0 0 0 0 0 -0 0 0 0 0 0 0 0 0 0 0 0 0 0 0 0 0 0
0 0 0 0 0 0 0 0 0 0 0 0 0 0 0 0 0 0 0 0 0 0 0 0 0 0 0 0 0 0 0 0 0 0 0 -0 -0 0 0 0 0 0 0 0 0 0 0 0 0 0 0 0 0 0
0 0 0 0 0 0 0 0 0 0 0 0 0 0 0 0 0 0 0 0 0 0 0 0 0 0 0 0 0 0 0 0 0 0 0 0 0 0 0 -0 -0 0 0 0 0 0 0 0 0 0 0 0 0 0
0 0 0 0 0 0 0 0 0 0 0 0 0 0 0 0 0 0 0 0 0 0 0 0 0 0 0 0 0 0 0 0 0 0 0 0 0 0 0 0 0 0 -0 0 0 0 0 0 0 0 0 0 0 0
0 0 0 0 0 0 0 0 0 0 0 0 0 0 0 0 0 0 0 0 0 0 0 0 0 0 0 0 0 0 0 0 0 0 0 0 0 0 0 0 -0 0 0 0 0 0 0 0 0 0 0 0 0 -0
0 0 0 0 0 0 0 0 0 0 0 0 0 0 0 0 0 0 0 0 0 0 0 0 0 0 0 0 0 0 0 0 0 0 0 0 0 0 0 -0 -0 0 0 0 0 0 0 0 0 0 0 0 0 0
0 0 0 0 0 0 0 0 0 0 0 0 0 0 0 0 0 0 0 0 0 0 0 0 0 0 0 0 0 0 0 0 0 0 0 -0 -0 0 -0 -0 -0 0 0 0 0 0 0 0 0 0 0 -0 -0 0
0 0 0 0 0 0 0 0 0 0 0 0 0 0 0 0 0 0 0 0 0 0 0 0 0 0 0 -0 -0 0 0 0 0 0 0 0 -0 -0 0 -0 0 0 0 -0 0 0 0 0 0 0 0 -0 0 0
0 0 0 0 0 0 0 0 0 0 0 0 0 0 0 0 0 0 0 0 0 0 0 0 0 0 0 0 0 0 0 0 0 0 0 0 0 0 0 0 0 0 0 0 0 0 0 0 0 0 0 0 0 0
0 0 0 0 0 0 0 0 0 0 0 0 0 0 0 0 0 0 0 0 0 0 0 0 0 0 0 0 0 0 0 0 0 0 0 -0 0 0 0 0 0 0 0 0 0 0 0 0 0 0 0 0 0 0
0 0 0 0 0 0 0 0 0 0 0 0 0 0 0 0 0 0 0 0 0 0 0 0 0 0 0 0 0 0 0 0 -0 0 0 0 0 0 0 0 0 0 0 0 0 0 0 0 0 0 0 0 0 0
0 0 0 0 0 0 0 0 0 0 0 0 0 0 0 0 0 0 0 0 0 0 0 0 0 0 0 0 0 0 0 0 0 -0 -0 0 0 0 0 0 0 0 0 -0 0 0 0 0 0 0 0 0 0 0
0 0 0 0 0 0 0 0 0 0 0 0 0 0 0 0 0 0 0 0 0 0 0 0 0 0 0 0 0 0 0 0 0 -0 0 0 0 0 -0 0 0 0 0 0 0 0 0 0 0 0 0 0 0 0
0 0 0 0 0 0 0 0 0 0 0 0 0 0 0 0 0 0 0 0 0 0 0 0 0 0 0 0 0 0 0 0 0 0 0 0 0 0 0 0 0 0 0 0 0 0 0 0 0 0 0 0 0 0
0 0 0 0 0 0 0 0 0 -0 0 0 0 0 0 0 0 0 0 0 0 0 0 0 0 0 0 0 0 0 0 0 0 0 0 0 0 0 0 0 0 0 0 0 0 0 0 0 0 0 0 0 0 0
0 0 0 0 0 0 0 -0 -0 0 0 0 0 0 0 0 0 0 0 0 0 0 0 0 0 0 0 0 0 0 0 0 0 0 0 0 0 -0 -0 0 0 0 0 0 0 0 0 0 0 0 0 -0 -0 0
0 0 0 0 0 -0 0 0 0 0 0 0 0 0 0 0 0 0 0 0 0 0 0 0 0 0 0 0 0 0 0 0 0 0 0 0 0 -0 -0 -0 0 0 0 0 0 0 0 0 0 0 0 0 0 0
0 0 0 0 0 0 0 0 0 0 0 0 -0 0 0 0 0 0 0 0 0 0 0 0 0 0 0 0 0 0 0 0 0 0 0 0 0 0 0 -0 -0 0 0 0 0 0 0 0 0 0 0 0 0 0
-0 -0 -0 -0 -0 -0 -0 0 -0 -0 -0 -0 -0 -0 -0 0 0 0 0 0 0 0 0 0 0 0 0 0 0 0 0 0 0 0 0 0 0 0 0 0 0 0 0 0 0 0 0 0 0 0 0 0 0 0
Wind_Speed_500mb
25 20 17 15 17 23 27 29 28 25 22 20 18 17 16 11 6 14 15 13 9 3 19 20 24 23 10 13 5 13 8 14 11 9 5 4 5 5 6 2 11 6 6 1 4 6 2 16 7 8 14 24 23 27
28 24 18 18 20 24 27 25 22 20 18 17 16 15 13 8 6 14 7 3 4 4 4 13 11 7 11 14 8 13 7 3 6 5 2 3 5 6 3 1 6 4 10 9 7 9 10 19 32 32 27 28 25 26
26 21 19 20 22 25 24 20 18 17 16 16 15 13 11 6 7 11 12 2 9 3 8 2 6 10 4 9 6 3 5 4 3 6 1 4 3 6 3 6 5 6 11 8 8 3 22 33 32 25 19 24 24 28
28 21 20 20 23 22 18 15 14 14 15 14 13 12 10 4 6 15 11 11 10 5 4 8 14 3 5 9 6 8 9 5 3 5 3 2 1 2 4 5 7 7 8 10 5 4 19 22 23 26 26 25 32 27
27 26 24 23 22 19 13 12 13 12 13 13 11 11 6 2 9 17 12 10 14 9 3 3 2 11 10 5 6 5 10 1 3 4 1 3 4 4 6 6 4 2 12 7 9 33 15 31 31 33 30 31 28 29
32 28 25 22 19 14 10 11 12 11 12 10 8 6 5 11 18 22 6 4 2 3 6 5 2 12 1 3 6 0 7 6 7 5 5 2 3 2 5 2 5 14 31 26 13 34 37 44 34 23 30 36 28 23
26 24 24 21 15 11 8 8 9 9 9 6 4 7 13 15 12 7 5 1 4 7 3 7 5 4 9 5 4 4 2 5 5 6 5 5 8 4 5 6 25 34 28 37 45 51 43 35 29 20 29 31 20 22
22 22 22 19 12 9 6 6 5 4 3 3 12 21 23 18 14 11 12 6 9 4 0 1 8 4 14 4 4 11 7 7 6 6 6 5 4 2 3 15 47 41 39 41 40 20 20 26 23 28 28 26 22 22
22 22 20 16 11 8 5 4 1 2 6 16 27 25 16 9 6 10 8 4 6 4 3 5 2 5 10 9 8 11 9 2 7 14 9 6 3 6 16 59 58 56 50 43 38 32 35 29 27 31 33 32 27 26
24 20 16 12 10 7 5 4 4 15 24 28 14 7 6 7 8 5 3 2 1 1 2 5 7 5 5 5 4 8 8 5 1 10 7 6 8 30 22 57 57 56 46 51 50 46 39 35 33 33 35 36 26 30
23 20 14 11 10 9 7 7 26 31 27 13 5 5 9 9 4 3 3 2 1 4 7 8 8 6 2 2 7 3 6 3 1 10 10 4 6 26 31 47 57 51 56 49 22 22 24 22 31 35 33 39 32 26
24 19 14 12 12 11 8 28 27 22 10 8 10 9 8 6 4 3 4 5 3 6 4 5 5 6 3 5 6 9 1 4 8 5 3 4 8 23 34 54 61 52 54 43 28 30 27 25 28 37 31 38 31 27
22 18 14 12 12 13 15 32 21 19 22 11 6 3 4 2 8 3 3 5 3 10 12 12 13 8 6 4 4 6 4 8 20 5 3 2 45 37 38 58 57 57 50 43 39 35 30 31 34 30 32 33 28 23
21 18 14 12 13 14 17 32 21 20 6 4 3 7 4 3 4 4 3 6 13 30 28 21 12 13 6 9 4 3 6 5 5 7 6 20 62 44 17 33 68 66 59 54 52 43 37 35 35 30 32 33 30 23
21 18 13 12 14 17 19 32 21 13 5 4 2 2 3 10 29 34 29 30 30 27 23 10 8 9 8 4 4 4 9 4 4 7 6 32 38 34 35 22 8 48 76 66 54 42 32 31 31 34 31 27 21 21
21 17 11 13 16 20 18 27 20 14 3 2 2 4 10 15 31 34 27 28 27 21 11 10 7 6 6 4 5 5 3 7 5 10 24 29 25 18 16 20 17 22 34 41 34 26 32 32 32 35 32 27 26 20
21 16 15 15 17 20 19 22 18 5 1 3 4 9 14 14 17 18 13 22 19 6 7 6 5 1 11 3 3 7 3 5 22 28 29 29 15 12 21 24 10 20 28 28 23 27 31 31 39 35 35 27 23 21
18 17 20 20 24 24 21 9 6 2 4 8 5 4 10 12 14 10 8 18 20 6 3 2 6 4 3 4 2 8 10 26 29 26 28 26 14 12 6 24 39 38 40 27 21 26 31 36 39 35 32 25 20 21
16 24 24 25 25 15 6 4 4 2 7 6 10 13 11 2 2 3 10 11 16 3 2 1 1 3 3 2 9 18 18 26 38 37 20 20 12 10 29 36 32 35 31 21 20 25 27 28 28 35 31 28 25 19
19 22 27 25 17 8 4 1 6 4 5 2 9 12 3 10 7 2 4 8 8 4 1 3 8 5 11 20 14 13 16 21 37 41 33 16 11 35 35 35 39 26 20 21 22 21 23 26 23 37 33 29 25 16
16 17 20 15 7 6 3 3 5 7 6 4 4 4 2 5 7 11 12 14 8 6 7 12 10 8 13 10 12 11 6 24 31 32 26 20 17 4 35 36 36 13 13 24 27 23 20 17 28 39 33 34 28 15
18 20 20 12 4 1 5 8 6 6 3 3 7 6 4 6 12 18 15 15 9 17 15 26 16 10 9 2 3 11 10 25 28 14 18 15 14 10 9 32 21 16 13 17 18 21 23 16 19 33 32 35 27 18
21 18 10 5 1 5 6 9 6 6 5 6 8 5 6 7 8 14 8 12 17 18 20 20 14 9 7 8 10 15 14 14 7 9 12 15 15 15 15 11 18 22 21 23 26 33 26 25 23 16 18 30 32 21
17 7 3 4 9 7 7 11 8 6 5 8 8 6 7 7 12 8 5 4 6 17 18 12 2 5 12 15 9 7 3 12 19 19 24 27 24 19 20 19 17 18 27 31 17 32 31 22 22 32 26 29 35 35
1 5 5 9 10 8 6 9 9 7 8 12 5 1 1 6 3 3 4 8 21 20 14 3 3 4 7 12 5 11 13 21 26 20 20 23 26 27 20 13 8 8 8 15 23 28 27 33 30 31 34 30 32 39
3 9 11 6 7 5 5 1 3 10 3 1 2 7 6 3 2 4 1 6 10 11 5 2 3 6 8 10 11 15 21 24 18 27 20 19 16 17 19 15 14 4 10 16 13 27 24 28 31 26 28 31 25 28
4 8 10 12 7 4 4 3 1 1 4 3 3 4 4 5 4 4 16 20 23 15 4 4 9 11 9 8 8 9 12 12 15 13 15 19 19 23 27 25 22 14 9 14 21 28 36 31 35 36 30 27 31 28
7 6 5 5 14 3 1 4 3 4 4 4 4 3 3 6 6 5 7 7 7 5 7 6 8 10 11 12 15 9 14 16 15 11 11 17 21 24 28 32 31 31 30 24 18 17 35 36 29 37 41 33 26 30
8 8 8 15 12 7 6 3 3 3 3 2 5 4 3 2 4 2 11 8 12 12 13 17 15 12 10 10 10 12 17 22 16 14 16 23 26 25 24 23 17 21 29 30 37 31 32 40 42 31 34 45 42 33
8 11 7 8 5 10 10 8 5 6 4 2 3 6 11 10 8 9 14 9 7 15 16 14 17 18 17 21 25 23 17 17 20 21 23 23 22 26 26 25 25 23 21 19 26 33 30 37 50 36 42 39 47 49
8 14 8 2 4 9 12 19 14 6 10 11 12 10 13 16 11 6 7 8 11 12 10 12 16 19 22 22 24 25 21 18 17 17 22 25 31 29 21 26 32 26 23 18 21 23 25 33 40 40 40 27 23 32
9 7 8 5 8 20 14 9 9 8 2 0 3 2 6 10 14 13 5 9 11 13 16 20 24 31 35 39 40 37 38 38 33 30 26 27 32 29 28 30 30 28 25 20 18 18 19 26 24 34 39 32 20 33
10 12 9 6 8 5 3 3 5 7 9 6 4 4 6 9 5 7 11 16 18 23 33 42 45 45 45 47 47 48 48 48 47 43 30 28 30 33 34 31 30 29 26 20 19 23 22 27 28 39 46 39 25 32
Wind_Direction_500mb
216 224 237 264 289 307 313 316 322 323 328 335 341 340 340 351 62 120 94 83 70 40 48 47 51 50 47 44 95 340 52 4 23 50 56 303 42 340 50 99 139 137 118 320 55 79 49 344 7 99 153 127 108 120
222 229 242 267 287 305 310 314 321 320 329 332 340 341 336 341 121 129 114 127 145 279 80 37 61 34 47 38 37 39 101 118 25 78 17 311 16 33 148 288 9 33 165 164 153 196 154 106 122 131 133 117 112 122
218 223 248 271 292 300 304 312 314 320 327 335 337 337 331 324 162 124 72 139 158 33 348 196 160 70 96 355 17 126 78 59 47 11 218 229 63 127 75 254 103 346 126 110 83 140 132 125 123 125 122 119 115 127
212 230 254 276 290 292 297 306 308 318 329 335 332 338 330 308 176 172 92 70 86 80 33 74 118 227 231 321 47 64 102 52 20 319 298 109 130 57 212 209 126 209 87 121 58 148 147 154 144 143 134 128 127 116
225 238 257 273 281 281 291 297 302 318 327 332 341 341 339 140 143 148 136 88 65 47 324 340 279 195 285 169 105 22 357 234 34 324 330 252 250 39 349 63 360 23 157 146 207 185 165 164 149 144 139 140 134 116
231 239 249 262 263 271 281 292 305 320 328 336 346 354 103 127 135 130 143 153 144 23 342 351 235 194 235 85 155 215 336 9 339 283 288 298 47 52 82 71 322 122 126 124 141 166 143 134 137 141 137 142 131 110
219 235 247 245 247 255 271 289 305 324 332 339 358 106 112 118 130 81 66 359 200 198 343 314 292 214 194 95 179 243 283 325 310 313 263 272 232 183 115 165 161 136 131 129 141 136 125 143 135 144 142 133 117 111
217 227 234 234 229 236 253 277 307 340 349 48 115 116 109 106 108 55 28 57 132 144 296 329 286 176 200 198 231 224 244 246 251 253 278 285 190 227 256 193 158 146 143 150 162 175 178 162 144 142 148 147 138 139
210 215 221 222 214 213 233 246 291 105 116 117 121 112 99 68 56 10 19 102 86 45 38 345 145 254 190 219 227 202 226 224 242 206 230 164 300 232 209 164 168 164 164 167 175 170 165 161 150 157 164 169 156 152
190 198 197 197 192 192 194 178 147 137 125 120 105 71 62 6 332 338 40 24 130 355 300 256 286 287 274 262 228 192 196 215 210 242 171 148 243 250 264 194 185 176 175 160 160 165 168 170 169 175 186 188 169 154
175 179 179 176 178 176 168 147 143 143 136 102 67 52 38 63 17 3 347 323 256 271 227 244 249 243 283 350 239 260 204 204 78 266 139 257 285 255 239 202 195 185 186 185 195 186 179 167 177 186 192 190 165 153
168 167 174 176 173 170 157 152 147 148 128 102 99 80 25 13 318 334 277 291 224 237 211 244 237 254 316 325 355 345 324 27 244 329 102 299 263 295 218 200 185 187 186 185 180 168 165 170 184 183 176 166 161 158
167 173 177 174 166 156 150 160 150 133 124 98 72 64 351 294 32 269 246 271 329 346 11 59 26 17 7 1 327 9 1 254 322 39 228 271 325 291 227 187 183 183 176 172 165 163 176 186 181 183 171 165 163 165
172 174 173 169 164 156 158 166 146 147 126 71 42 347 146 289 295 349 60 54 42 13 42 43 29 8 357 20 346 27 273 354 328 5 12 358 14 15 341 197 180 174 174 169 171 174 171 171 171 173 174 165 162 161
173 171 163 158 157 157 157 173 164 151 83 74 347 293 248 43 73 68 61 53 30 30 46 47 24 353 323 5 344 19 338 271 32 40 306 344 9 2 4 360 216 173 167 163 165 164 164 167 167 168 168 167 161 160
166 152 153 154 155 156 155 170 169 169 60 45 270 328 345 71 50 54 46 30 20 22 36 37 17 29 327 358 352 264 275 61 286 269 342 3 8 9 32 11 222 185 154 157 162 162 159 165 172 170 164 165 170 167
149 147 138 146 150 153 142 152 140 163 203 265 280 305 302 118 84 68 39 22 11 29 34 14 44 304 301 340 267 30 81 262 320 320 326 334 323 301 312 286 127 186 200 183 160 161 163 166 170 173 172 177 191 189
134 136 136 139 139 139 137 115 102 123 249 245 279 51 87 104 117 96 27 359 8 31 26 91 325 360 255 286 328 342 342 339 343 340 335 330 292 265 222 172 165 166 182 174 173 174 171 171 181 180 180 180 193 188
134 140 140 135 133 108 91 143 104 261 256 254 266 271 262 202 130 300 288 345 350 315 201 188 293 227 253 329 295 322 328 337 333 335 326 321 275 230 164 154 161 173 179 177 180 180 180 182 193 188 185 184 197 198
127 144 150 143 126 90 100 126 200 252 267 245 251 272 166 157 150 139 243 317 358 17 172 195 230 246 277 291 287 313 316 327 327 329 331 355 297 201 196 178 173 183 169 161 178 181 183 190 193 196 195 194 206 220
133 147 158 163 139 87 198 174 230 237 298 347 152 228 163 191 214 230 238 246 221 250 237 236 252 274 324 258 264 304 343 5 342 328 317 324 351 118 196 205 186 141 167 180 180 187 204 231 208 196 205 199 199 214
126 140 144 136 103 53 281 208 240 309 276 251 206 215 223 241 236 227 226 219 233 250 244 283 234 233 261 244 271 320 285 345 348 36 43 30 5 5 229 197 179 183 187 190 201 211 214 206 190 204 206 207 213 208
141 137 136 122 168 247 269 200 235 225 212 206 181 209 219 221 220 174 216 222 231 268 283 183 192 245 277 310 306 329 287 302 277 336 0 14 9 22 22 343 301 229 237 228 240 232 232 218 223 209 208 217 217 209
150 141 176 212 221 263 227 203 217 238 236 181 196 220 199 196 160 203 245 235 252 155 183 186 195 304 273 257 276 316 15 253 280 302 322 326 324 314 321 321 276 266 233 246 252 221 221 233 225 217 211 216 223 219
241 200 196 231 217 242 239 190 199 226 215 216 207 66 5 164 131 234 232 182 116 124 150 178 325 10 48 142 159 215 255 310 322 322 323 323 319 313 315 355 331 269 271 262 240 212 228 235 233 219 221 222 225 220
246 206 210 234 217 190 274 168 194 204 235 65 141 157 152 140 253 252 77 104 141 159 189 238 16 348 348 341 328 311 281 268 306 322 334 1 351 324 323 327 10 12 226 227 308 213 210 221 226 236 229 227 232 228
255 248 227 226 231 217 312 70 229 33 42 321 196 177 154 204 215 84 105 113 100 90 114 297 317 325 333 341 329 290 272 289 323 345 340 333 332 330 323 318 302 297 289 291 258 252 236 238 235 234 239 244 238 232
267 270 244 307 321 213 102 175 41 15 34 19 334 63 123 166 213 157 167 143 143 92 34 2 358 338 324 324 326 304 252 269 297 304 320 311 320 312 306 292 287 277 268 262 271 273 243 241 235 230 238 245 239 233
258 271 293 297 313 57 49 72 180 208 213 258 173 153 126 112 179 196 204 249 237 261 286 283 277 295 292 291 306 285 278 295 293 308 315 322 324 334 336 338 316 292 280 271 255 264 252 235 224 249 241 237 239 243
264 230 232 225 204 205 223 198 169 165 176 158 181 135 116 115 104 118 184 214 251 273 291 294 292 298 300 298 287 272 275 286 285 281 295 311 321 327 333 326 324 316 304 289 270 256 256 239 223 242 242 252 250 243
240 206 250 284 117 195 172 146 136 157 249 270 285 273 187 146 157 206 224 242 255 263 265 267 278 290 290 293 300 294 269 258 267 294 295 299 306 318 320 331 334 310 313 296 296 253 249 231 225 236 227 236 232 228
86 32 32 136 93 152 159 186 210 196 197 37 340 143 153 181 179 204 199 243 275 303 312 317 317 310 304 299 292 285 277 274 269 266 274 277 284 296 302 315 322 327 305 300 300 281 271 227 234 224 210 236 261 250
36 82 80 96 137 136 169 230 199 194 215 220 240 271 286 235 162 217 242 259 293 315 318 316 313 306 303 301 295 283 272 264 258 258 253 248 259 267 278 293 303 321 323 291 286 281 263 241 257 241 217 242 284 256
Wind_Speed_850mb
25 20 17 15 17 23 27 29 28 25 22 20 18 17 16 11 6 14 15 13 9 3 19 20 24 23 10 13 5 13 8 14 11 9 5 4 5 5 6 2 11 6 6 1 4 6 2 16 7 8 14 24 23 27
28 24 18 18 20 24 27 25 22 20 18 17 16 15 13 8 6 14 7 3 4 4 4 13 11 7 11 14 8 13 7 3 6 5 2 3 5 6 3 1 6 4 10 9 7 9 10 19 32 32 27 28 25 26
26 21 19 20 22 25 24 20 18 17 16 16 15 13 11 6 7 11 12 2 9 3 8 2 6 10 4 9 6 3 5 4 3 6 1 4 3 6 3 6 5 6 11 8 8 3 22 33 32 25 19 24 24 28
28 21 20 20 23 22 18 15 14 14 15 14 13 12 10 4 6 15 11 11 10 5 4 8 14 3 5 9 6 8 9 5 3 5 3 2 1 2 4 5 7 7 8 10 5 4 19 22 23 26 26 25 32 27
27 26 24 23 22 19 13 12 13 12 13 13 11 11 6 2 9 17 12 10 14 9 3 3 2 11 10 5 6 5 10 1 3 4 1 3 4 4 6 6 4 2 12 7 9 33 15 31 31 33 30 31 28 29
32 28 25 22 19 14 10 11 12 11 12 10 8 6 5 11 18 22 6 4 2 3 6 5 2 12 1 3 6 0 7 6 7 5 5 2 3 2 5 2 5 14 31 26 13 34 37 44 34 23 30 36 28 23
26 24 24 21 15 11 8 8 9 9 9 6 4 7 13 15 12 7 5 1 4 7 3 7 5 4 9 5 4 4 2 5 5 6 5 5 8 4 5 6 25 34 28 37 45 51 43 35 29 20 29 31 20 22
22 22 22 19 12 9 6 6 5 4 3 3 12 21 23 18 14 11 12 6 9 4 0 1 8 4 14 4 4 11 7 7 6 6 6 5 4 2 3 15 47 41 39 41 40 20 20 26 23 28 28 26 22 22
22 22 20 16 11 8 5 4 1 2 6 16 27 25 16 9 6 10 8 4 6 4 3 5 2 5 10 9 8 11 9 2 7 14 9 6 3 6 16 59 58 56 50 43 38 32 35 29 27 31 33 32 27 26
24 20 16 12 10 7 5 4 4 15 24 28 14 7 6 7 8 5 3 2 1 1 2 5 7 5 5 5 4 8 8 5 1 10 7 6 8 30 22 57 57 56 46 51 50 46 39 35 33 33 35 36 26 30
23 20 14 11 10 9 7 7 26 31 27 13 5 5 9 9 4 3 3 2 1 4 7 8 8 6 2 2 7 3 6 3 1 10 10 4 6 26 31 47 57 51 56 49 22 22 24 22 31 35 33 39 32 26
24 19 14 12 12 11 8 28 27 22 10 8 10 9 8 6 4 3 4 5 3 6 4 5 5 6 3 5 6 9 1 4 8 5 3 4 8 23 34 54 61 52 54 43 28 30 27 25 28 37 31 38 31 27
22 18 14 12 12 13 15 32 21 19 22 11 6 3 4 2 8 3 3 5 3 10 12 12 13 8 6 4 4 6 4 8 20 5 3 2 45 37 38 58 57 57 50 43 39 35 30 31 34 30 32 33 28 23
21 18 14 12 13 14 17 32 21 20 6 4 3 7 4 3 4 4 3 6 13 30 28 21 12 13 6 9 4 3 6 5 5 7 6 20 62 44 17 33 68 66 59 54 52 43 37 35 35 30 32 33 30 23
21 18 13 12 14 17 19 32 21 13 5 4 2 2 3 10 29 34 29 30 30 27 23 10 8 9 8 4 4 4 9 4 4 7 6 32 38 34 35 22 8 48 76 66 54 42 32 31 31 34 31 27 21 21
21 17 11 13 16 20 18 27 20 14 3 2 2 4 10 15 31 34 27 28 27 21 11 10 7 6 6 4 5 5 3 7 5 10 24 29 25 18 16 20 17 22 34 41 34 26 32 32 32 35 32 27 26 20
21 16 15 15 17 20 19 22 18 5 1 3 4 9 14 14 17 18 13 22 19 6 7 6 5 1 11 3 3 7 3 5 22 28 29 29 15 12 21 24 10 20 28 28 23 27 31 31 39 35 35 27 23 21
18 17 20 20 24 24 21 9 6 2 4 8 5 4 10 12 14 10 8 18 20 6 3 2 6 4 3 4 2 8 10 26 29 26 28 26 14 12 6 24 39 38 40 27 21 26 31 36 39 35 32 25 20 21
16 24 24 25 25 15 6 4 4 2 7 6 10 13 11 2 2 3 10 11 16 3 2 1 1 3 3 2 9 18 18 26 38 37 20 20 12 10 29 36 32 35 31 21 20 25 27 28 28 35 31 28 25 19
19 22 27 25 17 8 4 1 6 4 5 2 9 12 3 10 7 2 4 8 8 4 1 3 8 5 11 20 14 13 16 21 37 41 33 16 11 35 35 35 39 26 20 21 22 21 23 26 23 37 33 29 25 16
16 17 20 15 7 6 3 3 5 7 6 4 4 4 2 5 7 11 12 14 8 6 7 12 10 8 13 10 12 11 6 24 31 32 26 20 17 4 35 36 36 13 13 24 27 23 20 17 28 39 33 34 28 15
18 20 20 12 4 1 5 8 6 6 3 3 7 6 4 6 12 18 15 15 9 17 15 26 16 10 9 2 3 11 10 25 28 14 18 15 14 10 9 32 21 16 13 17 18 21 23 16 19 33 32 35 27 18
21 18 10 5 1 5 6 9 6 6 5 6 8 5 6 7 8 14 8 12 17 18 20 20 14 9 7 8 10 15 14 14 7 9 12 15 15 15 15 11 18 22 21 23 26 33 26 25 23 16 18 30 32 21
17 7 3 4 9 7 7 11 8 6 5 8 8 6 7 7 12 8 5 4 6 17 18 12 2 5 12 15 9 7 3 12 19 19 24 27 24 19 20 19 17 18 27 31 17 32 31 22 22 32 26 29 35 35
1 5 5 9 10 8 6 9 9 7 8 12 5 1 1 6 3 3 4 8 21 20 14 3 3 4 7 12 5 11 13 21 26 20 20 23 26 27 20 13 8 8 8 15 23 28 27 33 30 31 34 30 32 39
3 9 11 6 7 5 5 1 3 10 3 1 2 7 6 3 2 4 1 6 10 11 5 2 3 6 8 10 11 15 21 24 18 27 20 19 16 17 19 15 14 4 10 16 13 27 24 28 31 26 28 31 25 28
4 8 10 12 7 4 4 3 1 1 4 3 3 4 4 5 4 4 16 20 23 15 4 4 9 11 9 8 8 9 12 12 15 13 15 19 19 23 27 25 22 14 9 14 21 28 36 31 35 36 30 27 31 28
7 6 5 5 14 3 1 4 3 4 4 4 4 3 3 6 6 5 7 7 7 5 7 6 8 10 11 12 15 9 14 16 15 11 11 17 21 24 28 32 31 31 30 24 18 17 35 36 29 37 41 33 26 30
8 8 8 15 12 7 6 3 3 3 3 2 5 4 3 2 4 2 11 8 12 12 13 17 15 12 10 10 10 12 17 22 16 14 16 23 26 25 24 23 17 21 29 30 37 31 32 40 42 31 34 45 42 33
8 11 7 8 5 10 10 8 5 6 4 2 3 6 11 10 8 9 14 9 7 15 16 14 17 18 17 21 25 23 17 17 20 21 23 23 22 26 26 25 25 23 21 19 26 33 30 37 50 36 42 39 47 49
8 14 8 2 4 9 12 19 14 6 10 11 12 10 13 16 11 6 7 8 11 12 10 12 16 19 22 22 24 25 21 18 17 17 22 25 31 29 21 26 32 26 23 18 21 23 25 33 40 40 40 27 23 32
9 7 8 5 8 20 14 9 9 8 2 0 3 2 6 10 14 13 5 9 11 13 16 20 24 31 35 39 40 37 38 38 33 30 26 27 32 29 28 30 30 28 25 20 18 18 19 26 24 34 39 32 20 33
10 12 9 6 8 5 3 3 5 7 9 6 4 4 6 9 5 7 11 16 18 23 33 42 45 45 45 47 47 48 48 48 47 43 30 28 30 33 34 31 30 29 26 20 19 23 22 27 28 39 46 39 25 32
Wind_Direction_850mb
216 224 237 264 289 307 313 316 322 323 328 335 341 340 340 351 62 120 94 83 70 40 48 47 51 50 47 44 95 340 52 4 23 50 56 303 42 340 50 99 139 137 118 320 55 79 49 344 7 99 153 127 108 120
222 229 242 267 287 305 310 314 321 320 329 332 340 341 336 341 121 129 114 127 145 279 80 37 61 34 47 38 37 39 101 118 25 78 17 311 16 33 148 288 9 33 165 164 153 196 154 106 122 131 133 117 112 122
218 223 248 271 292 300 304 312 314 320 327 335 337 337 331 324 162 124 72 139 158 33 348 196 160 70 96 355 17 126 78 59 47 11 218 229 63 127 75 254 103 346 126 110 83 140 132 125 123 125 122 119 115 127
212 230 254 276 290 292 297 306 308 318 329 335 332 338 330 308 176 172 92 70 86 80 33 74 118 227 231 321 47 64 102 52 20 319 298 109 130 57 212 209 126 209 87 121 58 148 147 154 144 143 134 128 127 116
225 238 257 273 281 281 291 297 302 318 327 332 341 341 339 140 143 148 136 88 65 47 324 340 279 195 285 169 105 22 357 234 34 324 330 252 250 39 349 63 360 23 157 146 207 185 165 164 149 144 139 140 134 116
231 239 249 262 263 271 281 292 305 320 328 336 346 354 103 127 135 130 143 153 144 23 342 351 235 194 235 85 155 215 336 9 339 283 288 298 47 52 82 71 322 122 126 124 141 166 143 134 137 141 137 142 131 110
219 235 247 245 247 255 271 289 305 324 332 339 358 106 112 118 130 81 66 359 200 198 343 314 292 214 194 95 179 243 283 325 310 313 263 272 232 183 115 165 161 136 131 129 141 136 125 143 135 144 142 133 117 111
217 227 234 234 229 236 253 277 307 340 349 48 115 116 109 106 108 55 28 57 132 144 296 329 286 176 200 198 231 224 244 246 251 253 278 285 190 227 256 193 158 146 143 150 162 175 178 162 144 142 148 147 138 139
210 215 221 222 214 213 233 246 291 105 116 117 121 112 99 68 56 10 19 102 86 45 38 345 145 254 190 219 227 202 226 224 242 206 230 164 300 232 209 164 168 164 164 167 175 170 165 161 150 157 164 169 156 152
190 198 197 197 192 192 194 178 147 137 125 120 105 71 62 6 332 338 40 24 130 355 300 256 286 287 274 262 228 192 196 215 210 242 171 148 243 250 264 194 185 176 175 160 160 165 168 170 169 175 186 188 169 154
175 179 179 176 178 176 168 147 143 143 136 102 67 52 38 63 17 3 347 323 256 271 227 244 249 243 283 350 239 260 204 204 78 266 139 257 285 255 239 202 195 185 186 185 195 186 179 167 177 186 192 190 165 153
168 167 174 176 173 170 157 152 147 148 128 102 99 80 25 13 318 334 277 291 224 237 211 244 237 254 316 325 355 345 324 27 244 329 102 299 263 295 218 200 185 187 186 185 180 168 165 170 184 183 176 166 161 158
167 173 177 174 166 156 150 160 150 133 124 98 72 64 351 294 32 269 246 271 329 346 11 59 26 17 7 1 327 9 1 254 322 39 228 271 325 291 227 187 183 183 176 172 165 163 176 186 181 183 171 165 163 165
172 174 173 169 164 156 158 166 146 147 126 71 42 347 146 289 295 349 60 54 42 13 42 43 29 8 357 20 346 27 273 354 328 5 12 358 14 15 341 197 180 174 174 169 171 174 171 171 171 173 174 165 162 161
173 171 163 158 157 157 157 173 164 151 83 74 347 293 248 43 73 68 61 53 30 30 46 47 24 353 323 5 344 19 338 271 32 40 306 344 9 2 4 360 216 173 167 163 165 164 164 167 167 168 168 167 161 160
166 152 153 154 155 156 155 170 169 169 60 45 270 328 345 71 50 54 46 30 20 22 36 37 17 29 327 358 352 264 275 61 286 269 342 3 8 9 32 11 222 185 154 157 162 162 159 165 172 170 164 165 170 167
149 147 138 146 150 153 142 152 140 163 203 265 280 305 302 118 84 68 39 22 11 29 34 14 44 304 301 340 267 30 81 262 320 320 326 334 323 301 312 286 127 186 200 183 160 161 163 166 170 173 172 177 191 189
134 136 136 139 139 139 137 115 102 123 249 245 279 51 87 104 117 96 27 359 8 31 26 91 325 360 255 286 328 342 342 339 343 340 335 330 292 265 222 172 165 166 182 174 173 174 171 171 181 180 180 180 193 188
134 140 140 135 133 108 91 143 104 261 256 254 266 271 262 202 130 300 288 345 350 315 201 188 293 227 253 329 295 322 328 337 333 335 326 321 275 230 164 154 161 173 179 177 180 180 180 182 193 188 185 184 197 198
127 144 150 143 126 90 100 126 200 252 267 245 251 272 166 157 150 139 243 317 358 17 172 195 230 246 277 291 287 313 316 327 327 329 331 355 297 201 196 178 173 183 169 161 178 181 183 190 193 196 195 194 206 220
133 147 158 163 139 87 198 174 230 237 298 347 152 228 163 191 214 230 238 246 221 250 237 236 252 274 324 258 264 304 343 5 342 328 317 324 351 118 196 205 186 141 167 180 180 187 204 231 208 196 205 199 199 214
126 140 144 136 103 53 281 208 240 309 276 251 206 215 223 241 236 227 226 219 233 250 244 283 234 233 261 244 271 320 285 345 348 36 43 30 5 5 229 197 179 183 187 190 201 211 214 206 190 204 206 207 213 208
141 137 136 122 168 247 269 200 235 225 212 206 181 209 219 221 220 174 216 222 231 268 283 183 192 245 277 310 306 329 287 302 277 336 0 14 9 22 22 343 301 229 237 228 240 232 232 218 223 209 208 217 217 209
150 141 176 212 221 263 227 203 217 238 236 181 196 220 199 196 160 203 245 235 252 155 183 186 195 304 273 257 276 316 15 253 280 302 322 326 324 314 321 321 276 266 233 246 252 221 221 233 225 217 211 216 223 219
241 200 196 231 217 242 239 190 199 226 215 216 207 66 5 164 131 234 232 182 116 124 150 178 325 10 48 142 159 215 255 310 322 322 323 323 319 313 315 355 331 269 271 262 240 212 228 235 233 219 221 222 225 220
246 206 210 234 217 190 274 168 194 204 235 65 141 157 152 140 253 252 77 104 141 159 189 238 16 348 348 341 328 311 281 268 306 322 334 1 351 324 323 327 10 12 226 227 308 213 210 221 226 236 229 227 232 228
255 248 227 226 231 217 312 70 229 33 42 321 196 177 154 204 215 84 105 113 100 90 114 297 317 325 333 341 329 290 272 289 323 345 340 333 332 330 323 318 302 297 289 291 258 252 236 238 235 234 239 244 238 232
267 270 244 307 321 213 102 175 41 15 34 19 334 63 123 166 213 157 167 143 143 92 34 2 358 338 324 324 326 304 252 269 297 304 320 311 320 312 306 292 287 277 268 262 271 273 243 241 235 230 238 245 239 233
258 271 293 297 313 57 49 72 180 208 213 258 173 153 126 112 179 196 204 249 237 261 286 283 277 295 292 291 306 285 278 295 293 308 315 322 324 334 336 338 316 292 280 271 255 264 252 235 224 249 241 237 239 243
264 230 232 225 204 205 223 198 169 165 176 158 181 135 116 115 104 118 184 214 251 273 291 294 292 298 300 298 287 272 275 286 285 281 295 311 321 327 333 326 324 316 304 289 270 256 256 239 223 242 242 252 250 243
240 206 250 284 117 195 172 146 136 157 249 270 285 273 187 146 157 206 224 242 255 263 265 267 278 290 290 293 300 294 269 258 267 294 295 299 306 318 320 331 334 310 313 296 296 253 249 231 225 236 227 236 232 228
86 32 32 136 93 152 159 186 210 196 197 37 340 143 153 181 179 204 199 243 275 303 312 317 317 310 304 299 292 285 277 274 269 266 274 277 284 296 302 315 322 327 305 300 300 281 271 227 234 224 210 236 261 250
36 82 80 96 137 136 169 230 199 194 215 220 240 271 286 235 162 217 242 259 293 315 318 316 313 306 303 301 295 283 272 264 258 258 253 248 259 267 278 293 303 321 323 291 286 281 263 241 257 241 217 242 284 256